Location: Unspecified
(0.0000°N, 0.0000°E)
Time: 06:42:15
(UTC+01:00)

Cosmos 1295 Rocket - Visible Passes

Search period start: 06 December 2016 00:00
Search period end: 16 December 2016 00:00
Orbit: 944 x 994 km, 82.9° (Epoch: 05 December)

Date Brightness Start Highest point End Pass type
(mag) Time Alt. Az. Time Alt. Az. Time Alt. Az.
06 Dec 5.2 06:17:37 10° S 06:23:54 62° E 06:30:06 10° NNE visible
06 Dec 6.9 19:23:04 10° NW 19:27:55 25° W 19:32:48 10° SSW visible
07 Dec 7.7 19:49:49 10° W 19:51:18 11° W 19:52:46 10° WSW visible
08 Dec 7.0 05:21:07 10° SE 05:25:43 21° E 05:30:17 10° NE visible
09 Dec 5.8 05:43:07 10° SSE 05:49:06 44° E 05:55:01 10° NNE visible
10 Dec 4.6 06:06:07 10° S 06:12:29 90° WNW 06:18:47 10° N visible
10 Dec 7.3 19:12:47 10° NW 19:16:28 17° W 19:20:10 10° SW visible
11 Dec 7.3 04:47:39 10° SE 04:50:54 14° E 04:54:09 10° ENE visible
12 Dec 6.3 05:08:48 10° SSE 05:14:18 31° E 05:19:44 10° NNE visible
13 Dec 4.9 05:31:24 10° S 05:37:40 65° E 05:43:53 10° NNE visible
14 Dec 4.5 05:54:48 10° SSW 06:01:03 62° W 06:07:14 10° N visible
15 Dec 6.7 04:34:46 10° SE 04:39:29 22° E 04:44:10 10° NE visible
15 Dec 5.3 06:19:02 10° SW 06:24:25 29° W 06:29:45 10° NNW visible
